QPF
0.00 0.00 0.00 0.00 0.00 0.00 0.00 0.00 0.00 0.00 0.00 0.00 0.00 0.00 0.01 0.02 0.03 0.04 0.02 0.00 0.00 0.00 0.00 0.00 0.00 0.00 0.00 0.00 0.00 0.00 0.00 0.00 0.00 0.00 0.00 0.00 0.00 0.00 0.00 0.00 0.00 0.00 0.00
0.00 0.00 0.00 0.00 0.00 0.00 0.00 0.00 0.00 0.00 0.00 0.00 0.00 0.00 0.00 0.04 0.03 0.03 0.00 0.00 0.00 0.00 0.00 0.00 0.00 0.00 0.00 0.00 0.00 0.00 0.00 0.00 0.00 0.00 0.00 0.00 0.00 0.00 0.00 0.00 0.00 0.00 0.00
0.00 0.00 0.00 0.00 0.00 0.00 0.00 0.00 0.00 0.00 0.00 0.00 0.00 0.00 0.02 0.04 0.02 0.00 0.00 0.00 0.00 0.00 0.00 0.00 0.00 0.00 0.00 0.00 0.00 0.00 0.00 0.00 0.00 0.00 0.00 0.00 0.00 0.00 0.00 0.00 0.00 0.00 0.00
0.00 0.00 0.00 0.00 0.00 0.00 0.00 0.00 0.01 0.00 0.00 0.00 0.00 0.00 0.01 0.02 0.01 0.00 0.00 0.00 0.00 0.00 0.00 0.00 0.00 0.00 0.00 0.00 0.00 0.00 0.00 0.00 0.00 0.00 0.00 0.00 0.00 0.00 0.00 0.00 0.00 0.00 0.00
0.00 0.00 0.00 0.00 0.00 0.00 0.00 0.01 0.01 0.00 0.01 0.00 0.02 0.06 0.09 0.09 0.05 0.02 0.00 0.00 0.00 0.00 0.00 0.00 0.00 0.00 0.00 0.00 0.00 0.00 0.00 0.00 0.00 0.00 0.00 0.00 0.00 0.00 0.00 0.00 0.00 0.00 0.00
0.00 0.00 0.00 0.00 0.00 0.00 0.00 0.00 0.01 0.02 0.08 0.02 0.05 0.08 0.10 0.10 0.05 0.01 0.00 0.00 0.00 0.00 0.00 0.00 0.00 0.00 0.00 0.00 0.00 0.00 0.00 0.00 0.00 0.00 0.00 0.00 0.00 0.00 0.00 0.00 0.00 0.00 0.00
0.00 0.00 0.00 0.00 0.00 0.00 0.00 0.00 0.00 0.04 0.08 0.13 0.08 0.09 0.08 0.04 0.02 0.00 0.00 0.00 0.00 0.00 0.00 0.00 0.00 0.00 0.00 0.00 0.00 0.00 0.00 0.00 0.00 0.00 0.00 0.00 0.00 0.00 0.00 0.00 0.00 0.00 0.00
0.00 0.00 0.00 0.00 0.00 0.01 0.01 0.00 0.00 0.06 0.11 0.17 0.13 0.08 0.06 0.01 0.00 0.00 0.00 0.00 0.00 0.00 0.00 0.00 0.00 0.00 0.00 0.00 0.00 0.00 0.00 0.00 0.00 0.00 0.00 0.00 0.00 0.00 0.00 0.00 0.00 0.00 0.00
0.00 0.00 0.00 0.00 0.00 0.00 0.00 0.00 0.02 0.12 0.15 0.15 0.07 0.05 0.03 0.01 0.00 0.00 0.00 0.00 0.00 0.00 0.00 0.00 0.00 0.00 0.00 0.00 0.00 0.00 0.00 0.00 0.00 0.00 0.00 0.00 0.00 0.00 0.00 0.00 0.00 0.00 0.00
0.00 0.00 0.00 0.00 0.00 0.00 0.00 0.00 0.02 0.07 0.08 0.06 0.05 0.03 0.01 0.00 0.00 0.00 0.00 0.00 0.00 0.00 0.00 0.00 0.00 0.00 0.00 0.00 0.00 0.00 0.00 0.00 0.00 0.00 0.00 0.00 0.00 0.00 0.00 0.00 0.00 0.00 0.00
0.00 0.00 0.00 0.00 0.00 0.00 0.00 0.00 0.00 0.01 0.03 0.03 0.03 0.02 0.01 0.01 0.01 0.00 0.00 0.00 0.01 0.00 0.00 0.00 0.00 0.00 0.00 0.00 0.00 0.00 0.00 0.00 0.00 0.00 0.00 0.00 0.00 0.00 0.00 0.00 0.00 0.00 0.00
0.00 0.00 0.00 0.00 0.00 0.00 0.00 0.00 0.02 0.04 0.07 0.06 0.05 0.05 0.06 0.07 0.06 0.04 0.02 0.01 0.01 0.00 0.00 0.00 0.00 0.00 0.00 0.00 0.00 0.00 0.00 0.00 0.00 0.00 0.00 0.00 0.00 0.00 0.00 0.00 0.00 0.00 0.00
0.00 0.00 0.00 0.00 0.00 0.00 0.00 0.01 0.05 0.08 0.10 0.08 0.07 0.09 0.07 0.07 0.05 0.03 0.01 0.01 0.00 0.00 0.00 0.00 0.00 0.00 0.00 0.00 0.00 0.00 0.00 0.00 0.00 0.00 0.00 0.00 0.00 0.00 0.00 0.00 0.00 0.00 0.00
0.00 0.00 0.00 0.00 0.00 0.00 0.01 0.04 0.05 0.07 0.11 0.12 0.12 0.10 0.07 0.04 0.02 0.01 0.01 0.00 0.00 0.00 0.00 0.00 0.00 0.00 0.00 0.00 0.00 0.00 0.00 0.00 0.00 0.00 0.00 0.00 0.00 0.00 0.00 0.00 0.00 0.00 0.00
0.00 0.00 0.00 0.00 0.00 0.02 0.04 0.05 0.06 0.06 0.06 0.06 0.07 0.07 0.04 0.01 0.01 0.01 0.00 0.00 0.00 0.00 0.00 0.00 0.00 0.00 0.00 0.00 0.00 0.00 0.00 0.00 0.00 0.00 0.00 0.00 0.00 0.00 0.00 0.00 0.00 0.00 0.00
0.00 0.00 0.00 0.00 0.01 0.01 0.03 0.03 0.02 0.01 0.02 0.02 0.03 0.02 0.01 0.01 0.00 0.00 0.00 0.00 0.00 0.00 0.00 0.00 0.00 0.00 0.00 0.00 0.00 0.00 0.00 0.00 0.00 0.00 0.00 0.00 0.00 0.00 0.00 0.00 0.00 0.00 0.00
0.00 0.00 0.00 0.00 0.00 0.00 0.00 0.00 0.00 0.01 0.01 0.01 0.00 0.00 0.00 0.00 0.00 0.00 0.00 0.00 0.00 0.00 0.00 0.00 0.00 0.00 0.00 0.00 0.00 0.00 0.00 0.00 0.00 0.00 0.00 0.00 0.00 0.00 0.00 0.00 0.00 0.00 0.00
0.00 0.00 0.00 0.00 0.00 0.00 0.00 0.00 0.00 0.00 0.00 0.00 0.00 0.00 0.00 0.00 0.00 0.00 0.00 0.00 0.00 0.00 0.00 0.00 0.00 0.00 0.00 0.00 0.00 0.00 0.00 0.00 0.00 0.00 0.00 0.00 0.00 0.00 0.00 0.00 0.00 0.00 0.00
0.00 0.00 0.00 0.00 0.00 0.00 0.00 0.00 0.00 0.00 0.00 0.00 0.00 0.00 0.00 0.00 0.00 0.00 0.00 0.00 0.00 0.00 0.00 0.00 0.00 0.00 0.00 0.00 0.00 0.00 0.00 0.00 0.00 0.00 0.00 0.00 0.00 0.00 0.00 0.00 0.00 0.00 0.00
0.00 0.00 0.00 0.00 0.00 0.00 0.00 0.00 0.00 0.00 0.00 0.00 0.00 0.00 0.00 0.00 0.00 0.00 0.00 0.00 0.00 0.00 0.00 0.00 0.00 0.00 0.00 0.00 0.00 0.00 0.00 0.00 0.00 0.00 0.00 0.00 0.00 0.00 0.00 0.00 0.00 0.00 0.00
0.00 0.00 0.00 0.00 0.00 0.00 0.00 0.00 0.00 0.00 0.00 0.00 0.00 0.00 0.00 0.00 0.00 0.00 0.00 0.00 0.00 0.00 0.00 0.00 0.00 0.00 0.00 0.00 0.00 0.00 0.00 0.00 0.00 0.00 0.00 0.00 0.00 0.00 0.00 0.00 0.00 0.00 0.00
0.00 0.00 0.00 0.00 0.00 0.00 0.00 0.00 0.00 0.00 0.00 0.00 0.00 0.00 0.00 0.00 0.00 0.00 0.00 0.00 0.00 0.00 0.00 0.00 0.00 0.00 0.00 0.00 0.00 0.00 0.00 0.00 0.00 0.00 0.00 0.00 0.00 0.00 0.00 0.00 0.00 0.00 0.00
0.00 0.00 0.00 0.00 0.00 0.00 0.00 0.00 0.00 0.00 0.00 0.00 0.00 0.00 0.00 0.00 0.00 0.00 0.00 0.00 0.00 0.00 0.00 0.00 0.00 0.00 0.00 0.00 0.00 0.00 0.00 0.00 0.00 0.00 0.00 0.00 0.00 0.00 0.00 0.00 0.00 0.00 0.00
0.00 0.00 0.00 0.00 0.00 0.00 0.00 0.00 0.00 0.00 0.00 0.00 0.00 0.00 0.00 0.00 0.00 0.00 0.00 0.00 0.00 0.00 0.00 0.00 0.00 0.00 0.00 0.00 0.00 0.00 0.00 0.00 0.00 0.00 0.00 0.00 0.00 0.00 0.00 0.00 0.00 0.00 0.00
0.00 0.00 0.00 0.00 0.00 0.00 0.00 0.00 0.00 0.00 0.00 0.00 0.00 0.00 0.00 0.00 0.00 0.00 0.00 0.00 0.00 0.00 0.00 0.00 0.00 0.00 0.00 0.00 0.00 0.00 0.00 0.00 0.00 0.00 0.00 0.00 0.00 0.00 0.00 0.00 0.00 0.00 0.00
0.00 0.00 0.00 0.00 0.00 0.00 0.00 0.00 0.00 0.00 0.00 0.00 0.00 0.00 0.00 0.00 0.00 0.00 0.00 0.00 0.00 0.00 0.00 0.00 0.00 0.00 0.00 0.00 0.00 0.00 0.00 0.00 0.00 0.00 0.00 0.00 0.00 0.00 0.00 0.00 0.00 0.00 0.00
MSLP
1014.05 1014.80 1015.27 1015.85 1016.42 1016.88 1017.32 1017.75 1018.22 1018.75 1019.32 1020.03 1020.66 1021.14 1021.29 1021.61 1021.81 1021.78 1022.11 1022.18 1022.65 1023.10 1023.63 1024.24 1024.71 1025.22 1025.34 1025.88 1026.20 1026.67 1027.16 1027.72 1027.71 1027.72 1027.58 1027.46 1027.29 1027.18 1027.14 1026.98 1026.88 1026.84 1026.98
1014.20 1014.39 1014.88 1015.43 1015.81 1016.32 1016.72 1017.38 1017.78 1018.27 1018.79 1019.22 1019.89 1020.39 1020.91 1021.54 1021.88 1021.98 1022.19 1022.37 1022.60 1023.07 1023.67 1024.03 1024.65 1024.99 1025.45 1025.87 1026.08 1026.46 1027.30 1027.74 1027.73 1027.83 1027.92 1027.78 1027.65 1027.33 1027.28 1027.24 1027.05 1027.09 1027.20
1013.25 1013.85 1014.18 1014.40 1015.02 1015.52 1015.95 1016.67 1017.42 1017.82 1018.32 1018.92 1019.49 1020.45 1021.06 1021.60 1021.87 1022.02 1022.06 1022.30 1022.72 1023.08 1023.35 1023.90 1024.52 1025.02 1025.42 1025.87 1026.36 1026.60 1026.70 1027.26 1027.52 1027.37 1027.80 1028.09 1028.19 1027.96 1027.50 1027.30 1027.24 1027.30 1027.39
1012.62 1013.13 1013.63 1014.22 1014.17 1014.72 1015.70 1016.40 1017.08 1017.78 1018.22 1018.76 1019.13 1019.55 1019.96 1020.78 1020.80 1021.02 1021.58 1022.13 1022.60 1022.96 1023.49 1024.11 1024.61 1025.00 1025.43 1026.16 1026.53 1026.81 1027.10 1027.06 1027.44 1027.43 1027.62 1027.81 1028.05 1028.30 1028.31 1027.68 1027.53 1027.47 1027.31
1011.78 1012.29 1012.59 1012.81 1013.88 1014.85 1015.29 1015.82 1016.61 1017.32 1017.86 1018.41 1018.77 1019.26 1019.85 1020.27 1020.61 1021.19 1021.49 1022.14 1022.75 1023.16 1023.60 1024.10 1024.62 1025.21 1025.83 1026.18 1026.65 1026.68 1027.17 1027.23 1027.56 1027.78 1027.91 1028.14 1028.24 1028.25 1028.42 1028.13 1027.81 1027.54 1027.34
1011.16 1011.66 1012.33 1013.17 1013.74 1014.57 1015.32 1015.83 1016.20 1016.76 1017.38 1017.94 1018.35 1018.81 1019.44 1020.17 1020.85 1021.32 1021.80 1022.32 1022.90 1023.36 1023.66 1024.10 1024.63 1025.03 1025.37 1025.78 1026.30 1026.10 1026.63 1026.85 1027.20 1027.56 1027.86 1027.93 1027.93 1028.00 1028.05 1028.09 1027.74 1027.37 1027.15
1010.61 1011.18 1011.91 1012.58 1013.35 1014.04 1014.63 1015.14 1015.71 1016.15 1016.66 1017.38 1018.05 1018.56 1019.02 1019.77 1020.37 1020.87 1021.30 1022.12 1022.81 1023.28 1023.55 1023.79 1024.29 1024.62 1024.89 1024.99 1025.86 1026.20 1026.29 1026.51 1026.99 1027.55 1027.59 1027.56 1027.62 1027.69 1027.64 1027.56 1027.31 1027.33 1027.34
1009.77 1010.50 1011.08 1011.86 1012.56 1013.25 1013.83 1014.41 1014.84 1015.45 1016.13 1016.98 1017.53 1018.20 1018.60 1019.19 1019.73 1020.15 1020.65 1021.31 1021.84 1022.55 1023.51 1024.31 1024.90 1025.00 1024.87 1025.51 1025.34 1025.91 1026.20 1026.26 1026.58 1027.01 1027.27 1027.30 1027.25 1027.21 1027.08 1027.09 1027.32 1027.45 1027.43
1009.47 1009.75 1010.48 1011.13 1011.78 1012.44 1012.87 1013.45 1014.18 1014.79 1015.43 1015.90 1016.68 1017.45 1018.05 1018.66 1019.00 1019.38 1019.90 1020.68 1021.41 1022.32 1023.32 1023.73 1023.94 1025.20 1024.87 1025.33 1025.29 1025.75 1025.92 1026.31 1026.72 1026.90 1027.02 1027.12 1027.01 1026.92 1026.82 1026.84 1027.05 1027.49 1027.65
1009.94 1010.08 1010.40 1010.84 1011.34 1011.80 1012.49 1013.26 1013.76 1014.03 1014.61 1015.51 1016.20 1016.82 1017.45 1017.98 1018.52 1019.17 1019.89 1020.52 1021.17 1022.06 1022.95 1023.58 1024.29 1024.48 1024.81 1025.08 1025.42 1025.83 1025.92 1026.22 1026.44 1026.53 1026.73 1026.86 1026.81 1026.82 1026.79 1026.78 1026.86 1027.02 1027.18
1009.88 1010.06 1010.43 1010.77 1011.22 1011.72 1012.32 1012.78 1013.45 1013.92 1014.48 1014.98 1015.64 1016.36 1016.89 1017.46 1018.12 1018.90 1019.77 1020.71 1021.37 1022.00 1022.89 1023.26 1023.82 1024.20 1024.81 1024.89 1025.29 1025.67 1025.93 1026.29 1026.28 1026.32 1026.40 1026.35 1026.36 1026.28 1026.38 1026.48 1026.66 1026.81 1027.04
1009.56 1010.00 1010.43 1010.80 1011.16 1011.50 1011.92 1012.23 1012.84 1013.60 1014.11 1014.71 1015.44 1016.05 1016.61 1017.26 1018.11 1018.74 1019.42 1020.28 1021.33 1021.90 1021.98 1022.50 1023.27 1023.68 1024.21 1024.89 1025.22 1025.31 1025.47 1025.80 1026.06 1025.95 1026.00 1025.95 1025.98 1026.07 1026.15 1026.30 1026.43 1026.60 1026.71
1009.72 1009.96 1010.45 1010.64 1010.76 1011.12 1011.54 1012.11 1012.78 1013.46 1014.03 1014.77 1015.36 1016.02 1016.81 1017.60 1018.48 1019.21 1019.81 1020.58 1021.03 1021.63 1022.52 1022.75 1022.88 1024.22 1024.22 1024.32 1024.46 1024.70 1025.08 1025.33 1025.44 1025.46 1025.57 1025.53 1025.72 1025.86 1025.79 1025.85 1026.04 1026.16 1026.29
1009.69 1010.07 1010.35 1010.58 1011.03 1011.52 1011.96 1012.38 1013.00 1013.54 1014.20 1014.88 1015.47 1016.21 1017.06 1017.81 1018.79 1019.51 1020.11 1020.84 1021.26 1022.00 1022.31 1022.99 1023.83 1023.54 1023.78 1023.86 1024.24 1024.45 1024.61 1024.70 1024.76 1024.86 1024.92 1025.02 1025.16 1025.15 1025.14 1025.26 1025.38 1025.64 1025.95
1009.69 1009.92 1010.33 1010.96 1011.40 1011.87 1012.39 1012.94 1013.47 1014.07 1014.68 1015.29 1015.92 1016.69 1017.53 1018.07 1018.81 1019.78 1020.44 1020.97 1021.31 1022.41 1022.64 1022.56 1023.10 1023.44 1023.53 1023.58 1023.64 1023.75 1023.84 1024.12 1024.22 1024.27 1024.33 1024.44 1024.47 1024.35 1024.50 1024.59 1024.76 1025.17 1025.41
1011.00 1010.67 1010.92 1011.30 1011.84 1012.22 1012.93 1013.55 1014.07 1014.55 1015.02 1015.77 1016.45 1016.97 1017.79 1018.74 1019.43 1020.05 1020.89 1021.49 1022.32 1022.43 1022.81 1022.98 1023.08 1023.13 1023.16 1022.88 1022.89 1023.21 1023.40 1023.54 1023.71 1023.82 1023.84 1023.99 1023.88 1023.92 1023.85 1023.75 1023.78 1024.29 1024.68
1012.51 1012.37 1012.37 1012.51 1012.70 1013.16 1013.67 1014.37 1014.89 1015.30 1015.82 1016.45 1017.15 1017.80 1018.67 1019.49 1020.26 1020.80 1021.45 1021.56 1021.87 1022.36 1022.83 1022.82 1022.76 1022.63 1022.53 1022.58 1022.49 1022.42 1022.68 1022.90 1023.05 1023.19 1023.36 1023.46 1023.34 1023.25 1023.34 1023.41 1023.43 1023.67 1023.90
1013.85 1013.89 1013.89 1013.99 1014.19 1014.46 1014.83 1015.30 1015.86 1016.36 1016.88 1017.56 1018.19 1018.91 1019.54 1020.34 1020.87 1021.40 1021.81 1022.32 1022.31 1022.25 1022.26 1022.32 1022.39 1022.35 1022.11 1022.00 1021.94 1021.90 1022.12 1022.31 1022.37 1022.52 1022.65 1022.80 1022.79 1022.88 1022.90 1023.06 1023.36 1023.50 1023.65
1015.33 1015.31 1015.16 1015.15 1015.27 1015.59 1015.97 1016.23 1016.95 1017.46 1017.98 1018.66 1019.22 1019.81 1020.39 1020.94 1021.36 1021.82 1022.06 1022.12 1022.24 1022.26 1022.12 1022.09 1022.04 1022.06 1021.87 1021.68 1021.58 1021.51 1021.64 1021.78 1021.81 1021.84 1021.96 1022.08 1022.12 1022.15 1022.24 1022.62 1022.98 1023.08 1023.13
1015.88 1015.93 1016.11 1016.29 1016.50 1017.06 1017.15 1017.30 1018.00 1018.30 1018.96 1019.65 1020.24 1020.70 1020.97 1021.19 1021.49 1021.77 1022.07 1022.22 1022.29 1022.20 1022.05 1022.00 1021.87 1021.70 1021.54 1021.31 1021.07 1021.03 1021.15 1021.37 1021.25 1021.18 1021.18 1021.27 1021.26 1021.36 1021.59 1021.96 1022.37 1022.62 1022.45
1016.51 1016.73 1016.93 1017.30 1017.81 1018.01 1018.02 1018.50 1019.05 1019.60 1020.02 1020.30 1020.52 1020.82 1021.17 1021.47 1021.74 1021.96 1022.15 1022.23 1022.26 1022.22 1022.10 1021.92 1021.50 1021.20 1020.98 1020.66 1020.52 1020.38 1020.45 1020.41 1020.37 1020.41 1020.40 1020.34 1020.34 1020.46 1020.73 1021.13 1021.52 1021.60 1021.74
1017.36 1017.55 1017.78 1018.32 1018.70 1018.92 1019.03 1019.58 1020.00 1020.42 1020.52 1020.64 1021.10 1021.49 1021.73 1021.93 1022.05 1022.17 1022.17 1022.18 1022.20 1022.16 1021.88 1021.58 1021.14 1020.73 1020.38 1020.14 1019.75 1019.51 1019.41 1019.27 1019.48 1019.41 1019.33 1019.33 1019.39 1019.51 1019.70 1020.07 1020.42 1020.76 1021.11
1018.00 1018.30 1018.53 1019.10 1019.60 1019.89 1020.19 1020.60 1021.11 1021.17 1021.38 1021.62 1021.94 1022.09 1022.16 1022.25 1022.32 1022.41 1022.35 1022.29 1022.14 1022.00 1021.73 1021.44 1020.90 1020.18 1019.63 1019.36 1019.00 1018.66 1018.46 1018.42 1018.57 1018.37 1018.19 1018.23 1018.36 1018.62 1018.79 1019.10 1019.32 1019.85 1020.31
1018.56 1018.96 1019.34 1019.99 1020.65 1021.02 1021.35 1021.64 1021.78 1021.86 1022.05 1022.33 1022.54 1022.63 1022.74 1022.71 1022.61 1022.52 1022.41 1022.33 1022.08 1021.80 1021.46 1021.05 1020.53 1019.93 1019.24 1018.75 1018.38 1018.07 1017.67 1017.41 1017.37 1017.17 1017.20 1017.26 1017.41 1017.64 1017.82 1018.08 1018.43 1018.76 1019.19
1019.08 1019.47 1020.05 1020.79 1021.70 1021.97 1022.25 1022.45 1022.55 1022.52 1022.76 1023.01 1023.17 1023.21 1023.18 1023.10 1022.85 1022.63 1022.48 1022.21 1021.89 1021.70 1021.24 1020.83 1020.31 1019.71 1018.73 1018.02 1017.67 1017.29 1017.09 1016.79 1016.52 1016.48 1016.32 1016.55 1016.88 1017.07 1017.26 1017.42 1017.65 1017.96 1018.31
1019.66 1020.21 1020.98 1021.62 1022.49 1022.82 1023.14 1023.29 1023.32 1023.32 1023.51 1023.73 1023.87 1023.91 1023.76 1023.53 1023.22 1022.82 1022.37 1022.22 1021.70 1021.33 1021.07 1020.65 1020.21 1019.14 1018.66 1017.69 1016.78 1016.24 1015.88 1015.48 1015.40 1015.44 1015.13 1015.22 1015.66 1016.19 1016.37 1016.54 1016.69 1017.00 1017.32
Thickness
5643 5638 5636 5634 5631 5629 5626 5624 5621 5617 5613 5609 5604 5600 5599 5596 5594 5596 5592 5593 5588 5584 5578 5571 5566 5559 5555 5546 5539 5532 5524 5515 5510 5506 5504 5500 5497 5492 5487 5482 5479 5474 5468
5639 5641 5639 5636 5634 5631 5630 5625 5623 5620 5616 5613 5606 5602 5598 5593 5590 5589 5588 5587 5584 5579 5573 5567 5559 5551 5543 5537 5531 5523 5511 5503 5499 5495 5489 5485 5482 5479 5473 5468 5464 5458 5452
5647 5644 5644 5642 5638 5634 5633 5627 5622 5620 5617 5611 5607 5599 5593 5588 5588 5587 5587 5583 5577 5573 5567 5559 5550 5542 5535 5527 5519 5512 5507 5497 5491 5487 5478 5469 5463 5457 5459 5454 5448 5442 5437
5654 5650 5647 5643 5645 5641 5633 5628 5623 5618 5614 5609 5607 5604 5600 5593 5594 5591 5586 5578 5571 5565 5556 5548 5540 5533 5526 5516 5508 5501 5493 5488 5481 5476 5468 5460 5452 5444 5440 5438 5433 5428 5422
5658 5654 5652 5652 5644 5636 5633 5629 5623 5618 5615 5610 5607 5603 5598 5594 5589 5582 5578 5571 5562 5554 5546 5540 5532 5523 5514 5507 5496 5490 5482 5477 5469 5461 5454 5445 5437 5429 5422 5421 5415 5412 5406
5658 5657 5652 5645 5641 5633 5628 5625 5622 5619 5614 5609 5605 5601 5596 5587 5580 5575 5569 5560 5552 5545 5539 5532 5523 5515 5507 5498 5487 5484 5476 5469 5461 5450 5441 5433 5426 5418 5409 5402 5399 5401 5391
5659 5656 5651 5646 5640 5635 5631 5628 5624 5621 5617 5608 5601 5596 5591 5584 5578 5572 5565 5554 5544 5537 5532 5525 5516 5507 5499 5492 5481 5473 5467 5458 5448 5436 5428 5421 5413 5405 5397 5390 5390 5378 5372
5667 5660 5656 5651 5645 5640 5636 5632 5629 5625 5616 5606 5599 5594 5590 5583 5576 5570 5562 5553 5544 5534 5523 5512 5502 5495 5489 5479 5472 5463 5455 5447 5436 5425 5416 5408 5400 5391 5383 5374 5364 5359 5352
5665 5665 5659 5655 5650 5645 5641 5636 5630 5624 5617 5608 5602 5594 5586 5579 5574 5567 5560 5549 5537 5526 5515 5508 5500 5485 5482 5469 5462 5452 5442 5432 5421 5413 5404 5394 5386 5377 5369 5358 5345 5331 5325
5657 5657 5657 5654 5651 5646 5640 5633 5628 5624 5617 5607 5599 5592 5585 5577 5569 5561 5551 5540 5531 5520 5509 5499 5487 5479 5470 5461 5450 5438 5429 5420 5410 5401 5390 5380 5371 5361 5351 5339 5326 5312 5303
5652 5652 5651 5649 5646 5642 5636 5632 5625 5619 5611 5604 5597 5588 5581 5573 5565 5556 5544 5531 5521 5510 5498 5489 5479 5470 5458 5449 5439 5427 5416 5405 5396 5387 5377 5367 5357 5347 5334 5322 5309 5297 5284
5651 5649 5647 5644 5640 5637 5633 5630 5623 5616 5608 5599 5591 5582 5574 5566 5557 5549 5538 5525 5511 5499 5494 5484 5472 5461 5449 5435 5425 5417 5407 5394 5382 5373 5363 5353 5342 5329 5317 5305 5293 5282 5270
5647 5645 5642 5640 5640 5636 5631 5624 5618 5609 5599 5590 5582 5574 5566 5556 5546 5536 5526 5513 5503 5492 5478 5468 5461 5441 5434 5426 5417 5406 5393 5382 5371 5360 5349 5339 5327 5314 5303 5292 5279 5268 5257
5641 5639 5637 5635 5631 5626 5620 5615 5607 5599 5591 5582 5575 5565 5555 5545 5532 5523 5512 5500 5491 5479 5467 5455 5441 5434 5424 5415 5402 5391 5381 5371 5361 5350 5338 5326 5314 5303 5292 5281 5269 5256 5243
5635 5634 5631 5623 5619 5615 5608 5601 5594 5587 5580 5572 5564 5553 5542 5532 5521 5508 5497 5487 5478 5463 5454 5446 5432 5419 5410 5400 5391 5382 5372 5360 5349 5337 5327 5316 5304 5293 5283 5271 5258 5244 5233
5617 5622 5622 5616 5609 5604 5595 5587 5581 5574 5569 5559 5549 5540 5528 5514 5503 5493 5480 5470 5457 5450 5439 5428 5418 5408 5398 5391 5382 5371 5361 5349 5337 5326 5314 5304 5293 5282 5272 5262 5251 5237 5226
5596 5598 5597 5596 5593 5587 5580 5571 5564 5558 5550 5540 5530 5519 5507 5495 5484 5474 5463 5456 5446 5435 5424 5416 5407 5398 5389 5379 5370 5361 5350 5339 5327 5314 5302 5292 5282 5273 5264 5252 5240 5229 5220
5575 5574 5575 5573 5569 5565 5560 5553 5545 5537 5528 5518 5508 5497 5487 5476 5465 5455 5447 5436 5428 5422 5415 5405 5395 5386 5377 5368 5358 5349 5339 5327 5315 5303 5292 5283 5273 5262 5253 5241 5228 5220 5212
5554 5554 5555 5555 5552 5547 5541 5536 5525 5517 5509 5499 5489 5478 5468 5458 5448 5439 5430 5424 5418 5408 5401 5392 5382 5373 5364 5354 5345 5336 5325 5314 5303 5292 5282 5272 5264 5254 5243 5232 5220 5213 5206
5543 5543 5540 5537 5533 5525 5522 5516 5507 5501 5490 5479 5469 5459 5451 5444 5436 5427 5417 5409 5402 5394 5386 5377 5368 5360 5352 5341 5332 5321 5309 5299 5291 5283 5273 5263 5256 5247 5235 5223 5213 5205 5202
5532 5529 5525 5520 5513 5509 5506 5497 5488 5478 5469 5461 5453 5445 5437 5430 5421 5412 5403 5394 5386 5378 5371 5364 5356 5348 5338 5330 5318 5308 5295 5287 5280 5274 5266 5255 5247 5240 5229 5218 5208 5203 5199
5518 5514 5510 5502 5496 5491 5487 5476 5468 5459 5453 5446 5437 5427 5419 5411 5403 5395 5386 5378 5370 5363 5356 5348 5345 5336 5324 5311 5305 5296 5285 5277 5269 5265 5258 5248 5240 5231 5223 5213 5206 5200 5194
5504 5500 5495 5487 5479 5472 5465 5456 5446 5439 5432 5424 5416 5408 5401 5393 5385 5378 5370 5362 5354 5346 5341 5332 5326 5323 5316 5301 5289 5281 5273 5266 5257 5254 5248 5240 5232 5222 5215 5207 5202 5195 5190
5490 5485 5479 5469 5459 5451 5443 5434 5427 5420 5412 5404 5397 5390 5383 5376 5368 5360 5353 5346 5336 5329 5322 5313 5306 5301 5298 5290 5279 5267 5258 5253 5246 5240 5236 5230 5223 5214 5208 5202 5197 5192 5188
5476 5470 5461 5451 5438 5430 5422 5414 5407 5401 5393 5385 5378 5372 5364 5358 5351 5344 5336 5329 5320 5308 5301 5293 5285 5276 5275 5272 5262 5255 5246 5237 5230 5221 5219 5218 5208 5203 5198 5194 5190 5187 5183
5460 5451 5441 5430 5417 5409 5400 5393 5387 5381 5374 5367 5359 5351 5344 5337 5332 5327 5322 5313 5307 5299 5286 5273 5259 5259 5245 5243 5244 5241 5233 5227 5219 5211 5210 5210 5203 5195 5192 5188 5186 5184 5181